Temperature
13 13 14 14 12 10 12 13 13 13 14 15 16 16 16 16 16 16 16 16 17 17 17 17 17 17 17 17 17 17 17 17 17 17 17 17 17 17 17 17 17 17 17 17 16 16 16 16 16
13 13 13 13 11 12 13 12 13 13 13 15 16 16 15 15 16 15 15 16 16 17 17 17 17 17 17 17 17 17 17 17 17 17 17 17 17 17 17 17 16 17 17 16 16 16 16 16 15
12 13 13 10 11 11 13 13 12 13 14 14 14 15 15 14 14 14 15 15 16 16 16 16 16 16 16 16 16 16 16 17 17 17 17 17 16 16 17 16 16 16 16 16 16 16 16 15 15
12 13 12 10 11 11 12 11 12 12 13 13 13 13 14 14 14 14 14 15 15 16 16 16 16 16 16 16 16 16 16 16 16 16 16 16 16 16 16 16 16 16 16 16 16 16 15 15 15
12 12 9 9 10 11 10 11 11 11 11 12 12 11 13 14 14 14 14 15 15 15 15 15 15 15 16 16 16 16 16 16 16 16 16 16 16 16 16 16 16 16 16 16 16 15 15 15 15
12 9 9 9 10 10 10 10 11 10 11 12 12 11 13 13 14 14 14 14 14 14 14 15 15 15 15 15 15 15 16 16 16 16 16 16 16 16 16 16 16 16 16 15 15 15 15 15 14
10 8 9 9 9 10 10 10 10 10 10 11 11 11 12 13 13 13 13 13 13 13 14 14 14 15 15 15 15 15 15 15 15 15 16 16 15 15 15 15 15 15 15 15 15 15 14 14 14
10 7 8 8 9 9 9 10 10 10 10 11 11 10 11 12 12 12 12 12 13 13 13 13 14 14 14 14 15 15 15 15 15 15 15 15 15 15 15 15 15 15 15 15 15 14 14 14 14
10 7 7 8 8 9 9 9 9 10 9 10 10 10 10 11 11 11 12 12 12 13 13 13 13 13 14 14 14 14 14 14 14 14 14 14 15 15 15 15 15 15 15 15 14 14 14 14 13
8 6 8 8 8 8 8 8 8 9 8 9 10 10 10 10 10 10 11 11 11 12 12 12 12 13 13 13 13 14 14 14 14 14 14 14 14 14 14 14 14 14 14 14 14 14 14 13 13
7 7 7 8 8 8 7 8 8 8 7 8 9 9 9 9 10 10 10 10 10 11 11 12 12 12 12 13 13 13 13 13 14 14 14 14 14 14 14 14 14 14 14 14 14 13 13 13 13
7 7 7 7 8 7 7 7 7 7 8 9 9 8 9 9 9 9 9 9 10 10 11 11 11 12 12 12 12 12 12 13 13 13 13 13 13 13 13 13 13 14 14 14 14 13 13 13 13
6 6 7 7 7 7 7 6 7 7 9 9 8 8 8 8 8 9 9 9 9 9 10 10 11 11 11 12 12 12 12 12 12 12 13 13 13 13 13 13 13 13 13 13 13 13 13 13 12
6 5 5 6 6 6 6 6 6 7 9 8 8 8 8 8 8 8 8 8 9 9 9 10 10 10 11 11 11 11 12 12 12 12 12 12 12 12 12 12 13 13 13 13 13 13 13 12 12
5 5 5 6 6 6 6 5 5 8 8 8 7 7 7 7 7 7 8 8 8 8 9 9 9 10 10 10 11 11 11 11 11 11 12 12 12 12 12 12 12 12 12 12 12 12 12 12 12
4 4 5 5 5 6 5 5 6 8 7 7 7 7 7 7 7 7 7 7 8 8 8 8 9 9 9 10 10 10 10 10 11 11 11 11 11 11 11 11 12 12 12 12 12 12 11 11 11
3 3 4 4 5 5 5 4 6 7 6 6 6 6 6 7 7 7 7 7 7 7 7 8 8 8 9 9 9 10 10 10 10 10 10 10 11 11 11 11 11 11 11 11 11 11 11 11 11
4 3 3 3 4 4 4 4 6 6 6 5 5 6 6 6 7 7 7 7 7 7 7 7 7 8 8 8 9 9 9 9 9 10 9 10 10 10 10 10 11 11 11 11 11 11 11 11 11
4 3 3 3 4 4 3 4 5 5 5 5 5 5 6 6 7 7 7 7 7 7 7 7 7 7 7 7 8 8 8 8 9 9 9 9 9 10 10 10 10 10 10 11 11 11 10 10 10
4 3 2 3 4 4 3 3 4 4 4 5 5 5 6 6 7 7 7 7 6 6 6 6 6 6 6 7 7 7 8 8 8 8 9 9 9 9 9 10 10 10 10 10 10 10 10 10 10
4 3 3 3 3 3 2 3 4 4 5 5 5 5 6 6 6 6 6 6 6 6 6 6 6 6 6 6 7 7 7 7 7 8 8 8 8 9 9 9 10 9 10 10 10 10 10 9 9
4 4 4 3 2 1 2 2 3 3 3 4 4 5 6 6 6 6 6 6 6 6 6 6 6 6 6 6 6 6 6 6 7 7 8 8 8 8 9 9 9 9 9 10 10 10 10 10 9
3 4 3 2 1 0 1 1 2 2 3 4 4 5 5 6 5 5 5 5 5 5 5 6 6 6 6 6 6 6 6 6 7 7 7 7 7 8 8 9 9 9 9 9 9 10 10 9 9
3 2 2 0 -0 1 1 1 2 1 2 3 3 4 5 5 5 5 5 5 5 5 5 5 5 5 6 6 6 6 6 6 6 7 7 7 7 7 8 8 8 9 9 9 9 9 9 9 9
2 1 2 1 0 1 1 1 2 2 2 2 3 4 5 5 5 5 5 5 5 5 5 5 5 5 5 5 6 6 6 6 6 6 6 6 7 7 8 8 8 8 8 9 9 9 9 9 9
2 2 1 2 1 1 1 1 2 3 3 3 4 4 4 5 5 4 4 4 4 4 4 4 4 5 5 5 5 5 5 5 6 6 6 6 7 7 7 7 7 8 8 8 9 9 9 9 9
2 1 1 -0 -2 -2 -0 -1 1 3 3 3 3 4 4 4 4 4 4 4 4 4 4 4 4 4 5 5 5 5 5 5 6 6 6 6 7 7 7 7 7 7 7 8 8 8 8 8 8
2 1 -1 -1 -0 0 0 -0 1 2 3 3 2 3 4 4 4 4 4 4 4 4 4 4 4 4 4 4 5 5 5 5 5 5 6 6 7 7 7 7 7 7 7 7 8 8 8 8 8
1 1 0 -1 -1 -1 -0 2 2 2 2 2 2 3 3 4 4 4 4 4 4 4 4 4 4 4 4 4 5 5 5 5 5 5 6 6 6 6 7 7 7 7 7 7 8 7 8 8 8
1 0 -1 -0 -1 -2 -1 2 4 2 2 1 2 3 4 3 3 3 3 4 3 3 3 3 3 3 4 4 4 5 5 5 5 5 6 6 6 6 6 7 7 7 7 7 7 7 8 8 8
Wind_Speed
9 5 2 4 5 3 4 4 3 2 2 3 3 1 2 1 1 2 3 6 8 5 6 5 2 0 2 4 5 5 7 9 10 12 13 15 17 17 18 18 18 18 17 17 17 17 17 17 17
4 2 4 4 4 3 5 4 3 1 4 6 4 2 2 2 2 2 6 9 8 5 6 6 5 2 1 2 4 5 6 7 9 10 12 13 15 16 18 18 18 18 18 17 17 17 17 17 17
2 4 4 4 4 6 3 1 1 2 4 5 5 4 2 2 3 3 7 9 8 6 7 7 7 3 1 2 3 4 6 7 8 9 11 12 13 15 16 17 18 18 17 18 18 18 18 18 18
4 5 4 2 6 5 2 2 3 4 6 6 4 5 3 2 2 3 8 8 9 8 8 7 7 5 3 2 3 4 5 6 7 8 10 11 12 13 14 16 17 17 18 18 18 18 18 18 18
4 4 3 1 5 3 1 3 3 4 4 5 4 4 5 1 2 6 9 10 9 8 8 7 7 6 5 3 3 4 5 5 6 7 8 10 11 12 13 14 16 17 18 18 19 19 19 19 18
4 4 3 4 5 3 2 4 2 3 4 5 3 4 5 1 6 9 10 9 7 7 8 8 8 7 5 4 4 4 5 6 6 7 8 8 10 11 12 14 15 17 19 19 20 20 20 19 19
4 4 4 4 3 3 2 4 1 3 5 5 3 4 6 5 7 9 9 9 7 6 6 7 8 7 5 5 5 4 5 5 6 6 7 8 8 10 11 13 15 16 17 19 20 20 20 20 19
4 4 2 2 3 4 2 4 1 3 6 4 2 3 6 8 10 10 9 8 7 6 5 5 7 7 5 4 4 5 5 5 5 6 5 6 8 9 11 12 14 15 16 18 20 20 20 20 20
4 3 3 4 4 3 3 4 4 3 5 5 4 4 7 10 9 9 8 8 8 8 6 5 6 6 5 5 4 4 5 5 5 5 5 4 6 7 9 11 12 14 16 17 19 20 20 19 19
4 3 4 2 2 3 5 5 6 5 7 6 8 8 9 9 8 8 9 10 10 11 9 6 6 6 5 5 4 3 4 4 5 4 4 4 3 5 7 10 13 14 15 15 17 19 18 16 14
2 3 2 3 3 4 6 6 4 5 8 8 10 12 12 11 10 8 8 8 9 9 9 8 7 6 5 3 3 2 2 2 3 4 4 4 3 3 5 6 8 10 11 10 12 13 12 12 11
1 2 3 4 3 4 6 6 5 7 11 9 9 10 10 12 11 9 9 9 9 10 10 9 7 6 6 4 3 2 2 2 2 4 5 4 3 3 4 4 5 6 7 7 7 7 10 11 12
1 3 4 7 8 7 7 8 7 10 13 11 10 10 10 11 11 9 7 7 8 8 10 10 8 7 6 4 3 2 2 3 3 4 6 6 4 5 4 5 5 6 7 7 6 7 10 10 10
2 5 7 7 6 4 6 8 5 11 7 8 9 10 11 11 10 8 8 7 7 8 9 10 9 8 6 5 4 3 3 3 3 4 6 7 6 5 5 5 6 6 7 7 7 8 9 9 9
2 5 7 4 4 3 5 10 8 9 6 9 10 11 11 10 8 8 8 7 7 8 9 10 8 7 6 6 5 4 4 4 3 4 6 8 7 7 6 5 6 6 8 8 7 7 7 8 8
3 4 5 5 3 3 3 11 9 6 6 11 11 10 10 9 8 8 8 7 7 8 9 9 8 8 8 6 5 4 4 4 4 4 5 7 8 8 6 6 6 7 8 7 7 7 7 8 9
5 4 6 8 4 2 2 12 12 7 8 11 11 10 10 9 9 8 8 7 7 7 8 9 8 8 8 7 5 5 5 5 5 4 5 7 8 9 8 7 7 8 7 7 9 7 7 8 9
5 5 6 8 5 4 8 16 18 10 8 10 10 9 8 9 10 9 8 7 7 7 7 8 8 8 8 6 4 4 4 5 5 5 6 8 8 9 8 7 8 9 8 8 9 9 7 8 9
4 6 11 10 6 6 11 17 19 13 7 7 7 7 7 9 9 7 7 7 7 7 7 7 8 7 7 4 4 4 5 5 5 6 8 9 9 10 9 8 8 9 9 10 10 8 9 7 8
4 7 9 9 4 7 10 15 13 8 5 5 6 6 7 9 10 9 8 7 7 7 8 8 8 8 8 6 6 5 5 5 6 6 7 9 9 10 9 9 9 10 9 10 10 10 7 6 9
6 6 8 9 10 5 6 9 6 4 4 5 5 5 6 8 9 10 9 9 8 8 8 9 9 10 9 8 6 5 4 4 5 6 6 8 10 10 10 11 10 11 11 11 12 13 10 10 8
7 6 7 8 6 5 4 6 7 5 7 6 7 7 7 9 8 9 10 10 9 10 10 10 9 10 9 8 7 7 7 7 8 7 7 9 10 10 11 12 11 12 11 11 13 13 10 12 11
6 6 5 4 2 4 2 2 9 5 6 6 7 7 8 8 8 9 11 10 10 10 10 9 10 10 10 9 9 8 9 8 7 6 8 9 9 10 11 12 12 13 12 12 12 12 13 12 12
4 4 2 3 3 3 3 2 7 4 6 6 6 7 9 9 9 10 10 10 10 10 9 9 10 11 10 10 10 9 10 9 9 9 9 9 8 8 10 11 12 13 12 13 13 13 15 13 11
5 5 6 7 5 5 2 3 10 8 6 6 8 9 9 9 9 11 12 12 12 12 11 10 11 12 11 10 10 10 10 10 11 11 10 10 8 8 10 11 11 12 13 13 12 13 14 15 14
2 4 3 3 5 7 5 6 9 7 6 6 7 8 9 10 10 11 12 12 12 13 12 11 12 13 11 9 9 8 8 8 8 10 10 10 9 9 10 11 12 13 13 14 12 12 13 13 14
2 2 4 4 2 5 7 8 11 7 6 6 7 8 10 11 12 12 13 12 12 12 13 12 13 12 11 10 8 7 8 8 9 10 10 9 9 8 11 11 12 12 13 14 13 11 14 13 13
3 5 4 3 2 6 7 6 6 8 7 7 8 9 11 12 12 13 13 12 11 11 12 12 12 12 11 10 9 7 7 8 9 9 10 10 10 10 10 11 12 11 12 13 12 12 13 14 13
3 3 3 3 3 3 6 9 7 8 8 8 10 10 11 13 13 13 13 12 11 11 12 12 12 12 11 10 9 7 7 7 8 9 9 9 9 10 10 11 11 12 12 14 13 13 14 15 14
4 5 6 3 4 5 4 10 6 7 7 7 10 11 12 12 12 12 13 12 11 12 12 12 11 11 11 10 9 7 6 6 7 8 8 8 9 10 11 11 12 12 12 13 14 14 15 16 15
Wind_Direction
347 360 63 58 62 60 236 240 231 294 307 307 290 255 178 169 173 173 280 339 335 335 343 344 346 160 161 164 166 169 175 174 172 173 171 170 168 166 164 163 161 159 157 153 150 148 145 142 138
348 26 57 66 112 199 247 233 235 286 303 316 337 7 41 10 11 12 337 327 333 340 350 352 356 348 210 176 172 173 170 176 176 176 176 175 174 173 170 167 165 162 159 156 153 149 147 145 141
22 49 80 87 160 198 201 126 282 289 328 7 357 9 30 343 358 351 320 318 336 348 350 348 353 353 304 219 192 183 179 179 181 180 179 180 180 179 176 172 169 166 162 159 155 152 151 149 145
63 48 57 98 217 223 229 328 327 342 352 12 9 340 334 349 18 316 321 340 348 343 347 344 348 343 336 283 226 204 190 186 187 186 183 185 185 182 180 176 173 169 166 162 158 157 155 152 149
56 75 80 231 243 253 311 323 354 12 346 340 358 325 300 266 351 347 348 352 349 339 340 339 337 332 324 313 268 229 210 201 195 192 196 193 188 185 181 178 177 174 171 167 164 161 158 156 154
58 71 125 226 244 262 318 328 359 0 325 321 339 307 274 283 348 343 345 341 338 333 333 333 329 322 320 310 286 253 225 218 213 205 200 199 196 189 184 180 179 178 176 173 169 165 162 160 158
101 110 183 220 256 271 303 332 15 318 311 299 306 290 280 307 326 331 337 331 328 328 329 332 325 316 311 306 293 265 243 229 222 213 207 201 197 196 191 186 183 180 180 178 175 170 166 165 162
111 106 147 234 242 254 309 329 285 288 278 286 276 263 282 304 320 329 330 331 325 322 320 320 324 316 310 299 292 282 260 239 225 221 216 210 200 198 197 189 187 183 182 182 179 173 171 168 165
82 89 213 229 230 263 312 323 305 290 273 285 258 250 275 302 320 332 332 333 333 326 317 307 310 312 307 300 293 296 269 247 234 218 215 216 206 197 198 193 186 186 185 185 183 176 173 170 166
78 156 218 221 216 273 296 291 296 307 296 285 287 290 302 305 319 326 324 322 323 323 318 308 305 305 300 302 300 288 284 258 240 224 213 212 209 201 196 190 188 186 187 185 184 179 173 166 160
91 186 246 275 263 276 284 281 271 269 277 265 279 298 311 313 314 310 306 304 302 302 309 310 302 296 288 279 278 278 289 272 244 218 208 205 199 194 185 182 182 181 180 179 178 174 167 158 154
56 248 252 276 288 287 273 277 275 233 249 260 272 285 298 307 303 297 297 302 305 308 309 306 301 293 283 267 258 244 238 244 239 221 209 190 190 198 194 185 187 179 172 170 168 167 160 156 157
301 290 287 279 287 273 270 262 264 256 262 280 289 294 295 296 295 285 283 290 303 306 306 305 302 290 280 262 255 262 239 239 240 222 212 199 195 202 205 197 192 186 175 174 173 174 167 161 161
291 288 290 290 292 290 289 280 263 264 275 296 298 294 291 289 289 291 299 300 303 300 299 300 300 294 284 269 250 242 233 237 236 226 213 206 195 200 200 209 199 193 180 177 175 175 173 168 165
319 321 319 304 310 311 317 296 241 255 294 301 297 291 292 288 286 284 286 290 294 298 299 302 301 297 290 275 250 245 233 236 232 240 225 210 200 199 201 205 200 194 182 176 171 169 172 170 168
17 12 332 307 317 306 337 287 269 272 297 296 294 295 293 288 284 282 282 286 291 297 298 299 302 301 292 274 254 241 229 228 228 237 234 223 208 201 201 204 204 189 182 180 178 173 178 176 172
27 347 299 299 289 300 279 272 279 289 291 287 291 295 294 295 296 291 285 283 288 287 290 290 292 293 290 276 257 243 235 231 227 230 234 226 216 205 201 208 207 188 187 188 183 178 177 176 172
308 299 286 281 288 293 273 272 286 294 284 279 285 293 293 296 293 290 285 287 286 283 284 283 289 289 288 276 263 250 243 242 233 226 231 229 220 210 202 207 206 193 189 191 184 178 178 177 170
241 256 275 271 274 288 273 282 291 300 298 286 291 294 295 293 289 293 296 296 292 292 291 287 286 286 283 267 257 245 239 241 244 237 229 227 223 214 206 207 203 199 193 192 185 177 174 177 163
250 272 278 287 290 290 286 285 284 287 279 275 285 295 300 310 319 318 311 304 291 285 287 289 290 285 277 262 251 246 239 241 240 241 235 231 224 216 213 204 205 203 193 191 188 175 174 179 173
274 247 270 288 317 318 316 301 293 301 312 308 304 301 308 307 310 316 315 308 302 294 287 288 287 284 281 274 265 261 255 249 242 241 237 238 227 217 215 211 208 205 194 193 191 182 178 181 185
286 259 271 295 324 311 17 310 296 311 317 315 316 318 313 310 311 316 316 311 307 297 289 283 280 280 275 269 258 249 245 248 248 241 240 240 228 221 219 213 210 208 199 194 196 188 182 178 184
260 297 293 292 248 301 325 249 289 319 309 308 308 312 315 312 311 315 315 309 305 302 296 288 285 282 274 264 252 248 252 252 252 246 242 241 232 222 222 216 212 208 202 196 197 191 187 187 189
296 336 17 54 65 315 251 214 286 267 253 281 295 308 315 316 315 313 313 314 311 307 306 301 293 289 278 265 256 246 248 252 251 247 240 238 235 226 221 221 216 208 203 199 199 196 193 194 192
29 36 7 357 358 271 270 248 255 254 246 252 280 298 309 312 312 314 317 317 315 313 311 309 304 296 286 271 260 249 243 243 244 242 234 236 234 232 223 221 216 210 205 200 198 199 199 196 191
16 106 126 268 279 297 309 255 259 259 269 272 278 290 304 309 312 314 310 309 310 310 312 310 307 301 292 278 265 251 249 246 248 245 239 234 233 231 224 222 214 213 207 202 198 202 203 199 196
114 121 155 155 290 285 278 283 296 274 284 288 294 306 308 310 313 313 312 310 310 310 309 307 305 304 302 295 281 259 252 250 254 259 249 238 233 228 219 222 215 212 208 202 198 205 202 199 198
154 144 99 113 306 293 291 277 261 285 289 301 301 303 304 309 312 313 313 310 309 308 306 307 307 306 306 301 292 276 261 256 254 256 255 238 228 224 218 220 213 210 210 204 200 206 203 199 200
130 136 138 151 184 225 290 279 228 239 267 280 286 293 299 304 306 309 311 310 310 314 312 310 310 312 311 308 300 285 274 269 263 257 255 246 234 224 217 219 211 209 211 204 199 206 200 198 199
184 186 157 178 242 218 251 276 257 246 268 275 289 299 301 301 302 305 307 311 315 317 316 316 314 314 311 309 306 292 279 277 275 273 268 254 240 225 218 216 210 209 211 204 202 204 200 196 197
Height
1485 1487 1489 1492 1496 1505 1502 1497 1494 1492 1491 1489 1488 1487 1488 1489 1491 1496 1492 1488 1486 1485 1484 1484 1485 1485 1486 1487 1489 1490 1492 1493 1495 1496 1497 1499 1500 1501 1503 1504 1506 1507 1509 1510 1511 1512 1514 1515 1516
1486 1488 1491 1492 1500 1506 1500 1494 1493 1492 1491 1488 1487 1486 1486 1488 1489 1490 1488 1486 1485 1484 1484 1484 1485 1485 1486 1487 1488 1490 1491 1493 1494 1495 1497 1498 1499 1501 1502 1503 1505 1506 1508 1509 1510 1512 1513 1514 1515
1486 1488 1491 1494 1499 1501 1495 1492 1492 1491 1489 1488 1488 1487 1488 1489 1489 1489 1488 1486 1485 1484 1483 1484 1484 1485 1486 1487 1488 1489 1490 1492 1493 1494 1495 1497 1498 1499 1501 1502 1504 1505 1506 1508 1509 1511 1512 1513 1514
1488 1490 1492 1497 1496 1495 1494 1493 1492 1491 1489 1489 1489 1489 1489 1491 1490 1489 1487 1485 1484 1483 1483 1483 1483 1484 1484 1485 1486 1487 1489 1490 1491 1493 1494 1495 1497 1498 1499 1501 1502 1504 1505 1507 1508 1509 1511 1512 1513
1488 1490 1496 1499 1496 1494 1493 1493 1492 1492 1491 1491 1490 1489 1488 1489 1488 1487 1485 1483 1482 1482 1482 1482 1482 1482 1483 1484 1485 1486 1487 1488 1489 1490 1492 1493 1494 1496 1497 1499 1500 1502 1503 1505 1506 1508 1509 1511 1512
1489 1491 1501 1500 1496 1494 1494 1493 1492 1492 1492 1491 1490 1489 1486 1487 1486 1484 1483 1482 1481 1480 1480 1480 1480 1480 1481 1481 1482 1483 1484 1485 1486 1487 1489 1491 1492 1493 1495 1496 1498 1499 1501 1503 1504 1506 1507 1509 1511
1490 1495 1498 1497 1497 1495 1494 1493 1493 1492 1491 1491 1490 1488 1485 1485 1484 1482 1481 1480 1479 1479 1478 1478 1478 1478 1478 1479 1479 1480 1481 1482 1483 1484 1486 1487 1489 1490 1492 1493 1495 1497 1498 1500 1502 1504 1505 1507 1509
1489 1495 1498 1499 1497 1495 1494 1493 1492 1492 1490 1490 1489 1487 1484 1483 1481 1480 1478 1477 1476 1476 1475 1475 1474 1475 1475 1475 1476 1477 1478 1479 1480 1481 1482 1484 1485 1487 1489 1491 1492 1494 1496 1498 1500 1501 1503 1505 1507
1490 1499 1500 1497 1496 1495 1493 1492 1491 1490 1489 1487 1486 1486 1484 1481 1478 1476 1474 1473 1472 1472 1471 1471 1471 1471 1471 1471 1472 1473 1474 1475 1476 1478 1479 1480 1482 1483 1485 1487 1489 1491 1492 1494 1497 1499 1500 1502 1505
1492 1499 1496 1494 1494 1494 1492 1492 1490 1488 1486 1484 1482 1481 1480 1478 1475 1472 1470 1468 1467 1466 1466 1467 1467 1466 1467 1467 1468 1468 1469 1471 1472 1473 1475 1476 1477 1479 1481 1483 1485 1487 1490 1491 1493 1496 1497 1500 1502
1493 1495 1494 1493 1492 1492 1491 1489 1488 1487 1484 1482 1480 1477 1475 1473 1471 1469 1467 1465 1464 1462 1462 1462 1462 1462 1462 1462 1463 1463 1464 1465 1466 1468 1470 1471 1473 1474 1476 1478 1481 1483 1485 1488 1490 1492 1494 1496 1499
1494 1493 1492 1491 1491 1490 1489 1487 1486 1484 1480 1479 1477 1475 1472 1470 1468 1466 1463 1461 1460 1458 1457 1457 1457 1457 1457 1458 1458 1458 1459 1460 1461 1463 1465 1466 1468 1469 1471 1473 1475 1478 1480 1483 1485 1487 1490 1493 1496
1493 1492 1491 1490 1489 1487 1486 1484 1483 1478 1476 1475 1474 1472 1469 1467 1464 1462 1460 1458 1456 1455 1454 1453 1453 1452 1452 1452 1452 1453 1454 1455 1456 1457 1459 1461 1462 1464 1466 1468 1471 1473 1475 1478 1481 1483 1486 1489 1492
1493 1491 1489 1487 1486 1484 1483 1480 1480 1472 1472 1471 1470 1467 1465 1463 1461 1458 1456 1454 1453 1452 1450 1449 1448 1447 1447 1446 1447 1447 1449 1449 1451 1451 1453 1455 1457 1459 1461 1463 1465 1468 1470 1473 1477 1479 1482 1484 1488
1492 1491 1488 1485 1484 1483 1483 1478 1473 1469 1469 1467 1465 1463 1461 1458 1456 1454 1453 1451 1449 1447 1446 1444 1443 1442 1442 1442 1442 1442 1443 1444 1445 1446 1447 1449 1451 1453 1455 1458 1460 1463 1466 1469 1472 1475 1479 1481 1484
1493 1494 1493 1486 1484 1483 1486 1480 1468 1467 1466 1464 1461 1459 1456 1454 1452 1451 1449 1448 1446 1445 1442 1441 1440 1438 1437 1437 1436 1436 1438 1438 1439 1441 1442 1443 1445 1447 1449 1452 1455 1458 1461 1463 1466 1470 1473 1476 1480
1498 1501 1498 1490 1484 1483 1484 1477 1464 1464 1463 1460 1457 1455 1453 1450 1449 1447 1446 1444 1442 1441 1439 1437 1435 1433 1432 1432 1432 1432 1432 1433 1434 1435 1436 1437 1439 1441 1443 1446 1449 1452 1455 1458 1462 1465 1469 1472 1476
1502 1502 1499 1494 1485 1483 1482 1472 1461 1460 1460 1456 1453 1451 1450 1448 1445 1444 1442 1441 1439 1437 1435 1433 1431 1429 1427 1426 1426 1426 1426 1427 1427 1428 1430 1432 1433 1434 1437 1440 1443 1447 1449 1452 1456 1460 1464 1468 1472
1499 1500 1499 1490 1483 1482 1476 1468 1459 1456 1455 1453 1451 1449 1447 1445 1443 1441 1439 1437 1434 1432 1430 1428 1426 1425 1423 1421 1420 1420 1419 1420 1421 1422 1424 1425 1427 1428 1429 1432 1436 1440 1443 1446 1449 1454 1459 1463 1467
1497 1498 1496 1486 1481 1480 1475 1467 1457 1454 1453 1451 1449 1447 1445 1442 1439 1437 1435 1433 1431 1428 1426 1424 1422 1420 1418 1417 1415 1415 1414 1414 1415 1416 1417 1419 1420 1421 1423 1425 1429 1433 1436 1440 1444 1447 1452 1457 1461
1494 1495 1491 1488 1482 1479 1478 1466 1457 1452 1451 1450 1448 1446 1444 1441 1438 1436 1433 1430 1428 1425 1422 1420 1418 1415 1413 1411 1410 1409 1408 1407 1408 1408 1409 1411 1413 1414 1416 1418 1421 1425 1428 1432 1436 1441 1444 1449 1455
1493 1488 1487 1486 1489 1488 1485 1481 1460 1455 1452 1449 1446 1444 1442 1440 1437 1434 1431 1428 1424 1421 1418 1415 1412 1410 1408 1406 1404 1402 1400 1399 1399 1400 1402 1404 1406 1407 1409 1412 1415 1418 1421 1425 1430 1434 1439 1443 1447
1490 1486 1487 1487 1489 1493 1488 1489 1466 1458 1453 1448 1445 1443 1440 1438 1436 1432 1429 1426 1422 1418 1414 1411 1407 1404 1401 1400 1398 1396 1394 1393 1393 1394 1395 1397 1398 1400 1402 1404 1407 1411 1414 1418 1423 1427 1432 1437 1441
1489 1488 1488 1492 1495 1494 1486 1490 1471 1460 1453 1448 1444 1441 1438 1436 1434 1430 1427 1423 1419 1414 1410 1406 1402 1397 1395 1392 1390 1389 1387 1387 1387 1387 1388 1389 1390 1392 1393 1397 1400 1403 1407 1411 1416 1420 1425 1430 1435
1492 1496 1498 1496 1502 1493 1484 1484 1468 1451 1447 1446 1443 1440 1437 1435 1432 1428 1424 1419 1414 1409 1405 1401 1396 1391 1388 1385 1383 1382 1381 1381 1380 1380 1381 1381 1382 1383 1385 1390 1392 1396 1399 1404 1409 1414 1419 1423 1428
1495 1498 1507 1507 1506 1493 1486 1480 1458 1446 1443 1442 1440 1438 1435 1432 1429 1425 1421 1417 1411 1406 1401 1396 1391 1386 1382 1379 1376 1375 1375 1375 1374 1374 1374 1374 1375 1377 1379 1382 1386 1389 1393 1397 1402 1407 1412 1417 1422
1497 1501 1502 1511 1515 1513 1491 1478 1458 1442 1440 1438 1437 1435 1432 1429 1426 1422 1417 1413 1408 1402 1397 1392 1386 1382 1377 1373 1371 1369 1369 1368 1367 1367 1367 1368 1369 1370 1373 1376 1379 1382 1386 1390 1394 1400 1405 1410 1415
1495 1499 1508 1511 1512 1504 1488 1479 1464 1446 1440 1437 1435 1432 1429 1426 1422 1418 1414 1409 1404 1398 1393 1387 1382 1377 1372 1368 1366 1364 1363 1362 1361 1361 1360 1361 1362 1364 1366 1368 1372 1375 1379 1383 1388 1393 1398 1403 1409
1497 1500 1502 1509 1510 1508 1497 1465 1446 1443 1438 1436 1433 1430 1427 1424 1419 1414 1410 1405 1400 1395 1389 1383 1378 1372 1368 1364 1361 1358 1357 1357 1356 1355 1354 1354 1355 1357 1359 1362 1365 1368 1372 1376 1381 1386 1391 1396 1402
1492 1495 1500 1505 1507 1508 1501 1464 1437 1436 1434 1433 1431 1427 1424 1420 1416 1411 1406 1401 1395 1390 1385 1379 1374 1369 1364 1360 1357 1355 1353 1352 1350 1349 1348 1349 1349 1350 1353 1356 1359 1362 1366 1369 1375 1379 1384 1389 1395